Regional Weather Roundup
Issued by NWS Upton, NY

Current Version | Previous Version | Graphics & Text | Print | Product List | Glossary Off
Versions: 1 2 3 4 5 6 7 8 9 10 11 12 13 14 15 16 17 18 19 20 21 22 23 24 25 26 27 28 29 30 31 32 33 34 35 36 37 38 39 40 41 42 43 44 45 46 47 48 49 50

000
ASUS41 KOKX 260705
RWROKX

REGIONAL WEATHER ROUNDUP
NATIONAL WEATHER SERVICE NEW YORK NY
300 AM EDT SAT JUL 26 2014

NOTE: "FAIR" INDICATES FEW OR NO CLOUDS BELOW 12,000 FEET WITH NO
SIGNIFICANT WEATHER AND/OR OBSTRUCTIONS TO VISIBILITY.

NYZ071-072-176-178-NJZ106-104-260800-
NEW YORK CITY METRO AREA


CITY           SKY/WX    TMP DP  RH WIND       PRES   REMARKS
CENTRAL PARK   MOCLDY    71  60  68 VRB5      30.02S
LAGUARDIA APRT CLOUDY    72  60  66 SW8       29.98F
KENNEDY INTL   MOCLDY    71  63  75 SW10      30.00F
NEWARK/LIBERTY MOCLDY    69  62  78 SW9       29.99S
BRNX BOT. GARD   N/A    N/A N/A N/A CALM      30.00F
TETERBORO      MOCLDY    71  62  73 SW6       29.98S
$$

NYZ177-179-078>081-260800-
LONG ISLAND NEW YORK

CITY           SKY/WX    TMP DP  RH WIND       PRES   REMARKS
FARMINGDALE    MOCLDY    69  64  84 SW8       30.00S
ISLIP          PTCLDY    71  66  84 SW7       29.98F
SHIRLEY        PTCLDY    70  66  87 S6        30.00F
WESTHAMPTON    PTCLDY    69  66  90 SW5       30.01F
MONTAUK POINT    N/A     69  66  90 SW6       30.01F
$$

NYZ052-065-067-260800-
HUDSON VALLEY

CITY           SKY/WX    TMP DP  RH WIND       PRES   REMARKS
WHITE PLAINS   MOCLDY    64  60  87 CALM      29.99S
NEWBURGH       CLEAR     64  61  88 W6        30.00F
MONTGOMERY     PTCLDY    60  57  89 CALM      29.99S
POUGHKEEPSIE   MOCLDY    61  58  90 CALM      29.98S
ALBANY         PTCLDY    61  58  90 CALM      29.96F
$$

NJZ001-105-106-008-010-013-015-019>022-104-260800-
NEW JERSEY

CITY           SKY/WX    TMP DP  RH WIND       PRES   REMARKS
NEWARK/LIBERTY MOCLDY    69  62  78 SW9       29.99S
TETERBORO      MOCLDY    71  62  73 SW6       29.98S
CALDWELL       MOCLDY    66  60  81 CALM      30.00S
MORRISTOWN     MOCLDY    63  59  88 CALM      30.00S
SOMERVILLE     NOT AVBL
LINDEN         FAIR      70  62  75 W5        30.01S
SUSSEX         MOCLDY    59  56  89 CALM      30.00F
ANDOVER          N/A     59  58  96 CALM      30.01F
TRENTON        MOCLDY    65  58  78 CALM      30.00F
MILLVILLE      PTCLDY    58  56  93 CALM      30.02S
ATLANTIC CITY  PTCLDY    66  63  90 SW6       30.01F
WRIGHTSTOWN    MOCLDY    63  62  96 S3        29.99F
TOMS RIVER     MOCLDY    61  57  88 CALM      30.01F
BELMAR         CLOUDY    66  61  82 SW6       30.01S
$$

PAZ047>061-062-071-260800-
EASTERN PENNSYLVANIA

CITY           SKY/WX    TMP DP  RH WIND       PRES   REMARKS
PHILADELPHIA   MOCLDY    70  59  68 SW7       30.01F
ALLENTOWN      MOCLDY    61  56  83 CALM      30.01S
SCRANTON       PTCLDY    58  52  80 SE3       30.01F
$$

CTZ002-004>006-009-010-012-RIZ004-006-007-MAZ004-011-015-260800-
SOUTHERN NEW ENGLAND
 IN CT

CITY           SKY/WX    TMP DP  RH WIND       PRES   REMARKS
BRADLEY INTL   MOCLDY    64  58  80 S5        29.97F
HARTFORD       CLEAR     64  59  83 S5        29.98F
DANBURY        MOCLDY    61  57  87 CALM      30.01S
WTRBRY/OXFORD  PTCLDY    61  55  82 CALM      30.01F
BRIDGEPORT     PTCLDY    72  67  84 SW5       29.99S
MERIDEN        CLEAR     60  57  89 CALM      29.99F
NEW HAVEN      PTCLDY    73  66  78 VRB5      29.99S
CHESTER        FAIR      66  63  88 SW5       30.01S
GROTON         CLEAR     63  62  97 CALM      29.99S
WILLIMANTIC    CLEAR     59  56  89 CALM      29.99F

 IN RI

CITY           SKY/WX    TMP DP  RH WIND       PRES   REMARKS
PROVIDENCE     CLEAR     65  60  84 W3        29.99S
BLOCK ISLAND   CLEAR     66  63  88 SW8       30.00S
WESTERLY       CLEAR     65  61  87 CALM      30.00F

 IN MA

CITY           SKY/WX    TMP DP  RH WIND       PRES   REMARKS
BOSTON         CLEAR     67  59  75 SW6       29.97S
WORCESTER      CLEAR     62  56  80 W7        30.00S
WESTFIELD      PTCLDY    59  57  93 S5        29.97F
PROVINCETOWN   CLEAR     64  63  94 SW9       29.98S
NANTUCKET      CLEAR     63  61  93 SW6       30.00F
$$

ANZ330-335-338-340-345-350-353-355-260800-
COASTAL MARINE OBSERVATIONS


STATION/POSITION TIME  SKY/WX   TEMP    WIND        PRES    VSBY  WAVE
                                AIR SEA DIR/SP/G                  HT/PER
                 (UTC)          (F)     (DEG/KT/KT) (MB)    (MI)  (FT/S)
NY HARB ENTRANCE NOT AVBL
4S FIRE IS       NOT AVBL
23SW MTP         0700            70 71              1015.6          2/ 8
HUDSON CANYON    0700            73 74  240/  8/ 10 1016.2          2/ 7
EXECUTION ROCKS  0700            72 72  220/ 10/ 12   N/A
WESTERN LI SOUND 0700            71     200/  8/ 10   N/A           0
CENTRAL LI SOUND 0700            71 71  210/ 10/ 12   N/A           2/ 3
EASTERN LI SOUND 0600            68 67  250/  8/ 10   N/A
ROBBINS REEF     0700            69     250/ 12/ 15   N/A
$$


>>>>>>>>>>>>>>>>>>>>>>>>>>>> KEY <<<<<<<<<<<<<<<<<<<<<<<<<<<
>                                                          <
>     SKY/WX - SKY CONDITION/PRESENT WEATHER               <
>     TMP    - TEMPERATURE IN FAHRENHEIT                   <
>     DP     - DEWPOINT IN FAHRENHEIT                      <
>     RH     - RELATIVE HUMIDITY IN PERCENT                <
>     WIND   - DIRECTION AND SPEED IN MPH                  <
>     PRES   - MEAN SEA LEVEL PRESSURE IN INCHES OF HG     <
>     WCI    - WIND CHILL INDEX                            <
>     VSB    - VISIBILITY IN MILES                         <
>     HX     - HEAT INDEX                                  <
>     TC     - TEMPERATURE IN CELSIUS                      <
>     VRB    - VARIABLE WIND DIRECTION                     <
>                                                          <
>>>>>>>>>>>>>>>>>>>>>>>>>>>> KEY <<<<<<<<<<<<<<<<<<<<<<<<<<<




USA.gov is the U.S. government's official web portal to all federal, state and local government web resources and services.